Time,TemperatureF,DewpointF,PressureIn,WindDirection,WindDirectionDegrees,WindSpeedMPH,WindSpeedGustMPH,Humidity,HourlyPrecipIn,Conditions,Clouds,dailyrainin,SoftwareType,DateUTC
2013-03-06 00:02:00,59.0,56.0,30.05,SW,224,6.0,10.0,90,99.99,,,-99.99,,2013-03-06 05:02:00,
2013-03-06 00:11:00,59.0,56.0,30.05,West,267,6.0,9.0,91,99.99,,,-99.99,,2013-03-06 05:11:00,
2013-03-06 00:22:00,59.0,56.0,30.05,West,267,6.0,9.0,91,99.99,,,-99.99,,2013-03-06 05:22:00,
2013-03-06 00:32:00,59.0,57.0,30.04,WSW,253,7.0,11.0,93,99.99,,,-99.99,,2013-03-06 05:32:00,
2013-03-06 00:42:00,59.0,57.0,30.04,WSW,253,7.0,11.0,93,99.99,,,-99.99,,2013-03-06 05:42:00,
2013-03-06 00:52:00,59.0,57.0,30.04,WSW,246,7.0,10.0,94,99.99,,,-99.99,,2013-03-06 05:52:00,
2013-03-06 01:02:00,60.0,58.0,30.04,WSW,250,6.0,11.0,94,99.99,,,-99.99,,2013-03-06 06:02:00,
2013-03-06 01:11:00,60.0,58.0,30.04,WSW,250,6.0,11.0,94,99.99,,,-99.99,,2013-03-06 06:11:00,
2013-03-06 01:22:00,60.0,58.0,30.03,SW,219,8.0,13.0,94,99.99,,,-99.99,,2013-03-06 06:22:00,
2013-03-06 01:32:00,61.0,59.0,30.03,WSW,243,6.0,10.0,92,99.99,,,-99.99,,2013-03-06 06:32:00,
2013-03-06 01:42:00,61.0,59.0,30.03,WSW,243,6.0,10.0,92,99.99,,,-99.99,,2013-03-06 06:42:00,
2013-03-06 01:52:00,62.0,59.0,30.02,WSW,248,9.0,15.0,90,99.99,,,-99.99,,2013-03-06 06:52:00,
2013-03-06 02:01:00,62.0,59.0,30.02,SW,214,8.0,14.0,89,99.99,,,-99.99,,2013-03-06 07:01:00,
2013-03-06 02:11:00,62.0,59.0,30.02,SW,214,8.0,14.0,89,99.99,,,-99.99,,2013-03-06 07:11:00,
2013-03-06 02:22:00,63.0,59.0,30.01,West,271,9.0,15.0,88,99.99,,,-99.99,,2013-03-06 07:22:00,
2013-03-06 02:32:00,63.0,59.0,30.01,SW,235,8.0,15.0,88,99.99,,,-99.99,,2013-03-06 07:32:00,
2013-03-06 02:42:00,63.0,59.0,30.01,SW,235,8.0,15.0,88,99.99,,,-99.99,,2013-03-06 07:42:00,
2013-03-06 02:52:00,63.0,59.0,29.99,WSW,248,8.0,13.0,88,99.99,,,-99.99,,2013-03-06 07:52:00,
2013-03-06 03:01:00,63.0,59.0,29.99,SW,225,9.0,17.0,88,99.99,,,-99.99,,2013-03-06 08:01:00,
2013-03-06 03:11:00,63.0,59.0,29.99,SW,225,9.0,17.0,88,99.99,,,-99.99,,2013-03-06 08:11:00,
2013-03-06 03:21:00,63.0,60.0,29.98,SW,231,9.0,17.0,90,99.99,,,-99.99,,2013-03-06 08:21:00,
2013-03-06 03:32:00,62.0,60.0,29.98,SSW,211,7.0,14.0,92,99.99,,,-99.99,,2013-03-06 08:32:00,
2013-03-06 03:42:00,62.0,60.0,29.98,SSW,211,7.0,14.0,92,99.99,,,-99.99,,2013-03-06 08:42:00,
2013-03-06 03:52:00,62.0,60.0,29.98,SW,222,8.0,14.0,94,99.99,,,-99.99,,2013-03-06 08:52:00,
2013-03-06 04:01:00,62.0,61.0,29.97,SW,236,8.0,12.0,95,99.99,,,-99.99,,2013-03-06 09:01:00,
2013-03-06 04:12:00,62.0,61.0,29.97,SW,236,8.0,12.0,95,99.99,,,-99.99,,2013-03-06 09:12:00,
2013-03-06 04:21:00,62.0,61.0,29.97,WSW,243,6.0,10.0,96,99.99,,,-99.99,,2013-03-06 09:21:00,
2013-03-06 04:32:00,62.0,61.0,29.97,WSW,239,8.0,13.0,96,99.99,,,-99.99,,2013-03-06 09:32:00,
2013-03-06 04:42:00,62.0,61.0,29.97,WSW,239,8.0,13.0,96,99.99,,,-99.99,,2013-03-06 09:42:00,
2013-03-06 04:52:00,62.0,61.0,29.96,SW,231,7.0,13.0,96,99.99,,,-99.99,,2013-03-06 09:52:00,
2013-03-06 05:01:00,62.0,61.0,29.97,SW,232,8.0,13.0,96,99.99,,,-99.99,,2013-03-06 10:01:00,
2013-03-06 05:11:00,62.0,61.0,29.97,SW,232,8.0,13.0,96,99.99,,,-99.99,,2013-03-06 10:11:00,
2013-03-06 05:22:00,62.0,61.0,29.97,WSW,245,8.0,13.0,96,99.99,,,-99.99,,2013-03-06 10:22:00,
2013-03-06 05:32:00,63.0,62.0,29.97,West,260,7.0,11.0,95,99.99,,,-99.99,,2013-03-06 10:32:00,
2013-03-06 05:42:00,63.0,62.0,29.97,West,260,7.0,11.0,95,99.99,,,-99.99,,2013-03-06 10:42:00,
2013-03-06 05:52:00,63.0,62.0,29.98,West,262,7.0,14.0,95,99.99,,,-99.99,,2013-03-06 10:52:00,
2013-03-06 06:02:00,63.0,62.0,29.99,West,281,7.0,10.0,95,99.99,,,-99.99,,2013-03-06 11:02:00,
2013-03-06 06:11:00,63.0,62.0,29.99,West,281,7.0,10.0,95,99.99,,,-99.99,,2013-03-06 11:11:00,
2013-03-06 06:22:00,63.0,62.0,29.99,WSW,246,7.0,13.0,96,99.99,,,-99.99,,2013-03-06 11:22:00,
2013-03-06 06:32:00,63.0,62.0,29.98,WSW,240,6.0,10.0,96,99.99,,,-99.99,,2013-03-06 11:32:00,
2013-03-06 06:42:00,63.0,62.0,29.98,WSW,240,6.0,10.0,96,99.99,,,-99.99,,2013-03-06 11:42:00,
2013-03-06 06:52:00,63.0,62.0,29.99,West,271,6.0,10.0,96,99.99,,,-99.99,,2013-03-06 11:52:00,
2013-03-06 07:02:00,63.0,62.0,29.99,West,276,6.0,9.0,97,99.99,,,-99.99,,2013-03-06 12:02:00,
2013-03-06 07:11:00,63.0,62.0,29.99,West,276,6.0,9.0,97,99.99,,,-99.99,,2013-03-06 12:11:00,
2013-03-06 07:22:00,63.0,62.0,30.01,NW,311,4.0,7.0,98,99.99,,,-99.99,,2013-03-06 12:22:00,
2013-03-06 07:33:00,63.0,63.0,30.02,WNW,284,6.0,11.0,100,99.99,,,-99.99,,2013-03-06 12:33:00,
2013-03-06 07:42:00,63.0,63.0,30.02,WNW,284,6.0,11.0,100,99.99,,,-99.99,,2013-03-06 12:42:00,
2013-03-06 07:53:00,62.0,55.0,30.03,NNW,329,9.0,17.0,79,99.99,,,-99.99,,2013-03-06 12:53:00,
2013-03-06 08:02:00,62.0,47.0,30.04,NW,323,12.0,21.0,57,99.99,,,-99.99,,2013-03-06 13:02:00,
2013-03-06 08:12:00,62.0,47.0,30.04,NW,323,12.0,21.0,57,99.99,,,-99.99,,2013-03-06 13:12:00,
2013-03-06 08:22:00,62.0,51.0,30.05,North,352,9.0,15.0,66,99.99,,,-99.99,,2013-03-06 13:22:00,
2013-03-06 08:32:00,61.0,52.0,30.06,NNW,340,14.0,24.0,73,99.99,,,-99.99,,2013-03-06 13:32:00,
2013-03-06 08:42:00,61.0,52.0,30.06,NNW,340,14.0,24.0,73,99.99,,,-99.99,,2013-03-06 13:42:00,
2013-03-06 08:52:00,60.0,52.0,30.07,North,352,14.0,27.0,74,99.99,,,-99.99,,2013-03-06 13:52:00,
2013-03-06 09:01:00,60.0,52.0,30.07,North,0,10.0,16.0,75,99.99,,,-99.99,,2013-03-06 14:01:00,
2013-03-06 09:11:00,60.0,52.0,30.07,North,0,10.0,16.0,75,99.99,,,-99.99,,2013-03-06 14:11:00,
2013-03-06 09:22:00,59.0,51.0,30.08,North,350,9.0,19.0,75,99.99,,,-99.99,,2013-03-06 14:22:00,
2013-03-06 09:32:00,59.0,48.0,30.09,North,359,11.0,19.0,67,99.99,,,-99.99,,2013-03-06 14:32:00,
2013-03-06 09:42:00,58.0,40.0,30.09,NW,316,13.0,24.0,51,99.99,,,-99.99,,2013-03-06 14:42:00,
2013-03-06 09:53:00,58.0,40.0,30.09,NW,316,13.0,24.0,51,99.99,,,-99.99,,2013-03-06 14:53:00,
2013-03-06 10:02:00,57.0,36.0,30.09,North,350,11.0,18.0,46,99.99,,,-99.99,,2013-03-06 15:02:00,
2013-03-06 10:11:00,57.0,36.0,30.09,North,350,11.0,18.0,46,99.99,,,-99.99,,2013-03-06 15:11:00,
2013-03-06 10:22:00,57.0,35.0,30.10,NW,326,11.0,17.0,44,99.99,,,-99.99,,2013-03-06 15:22:00,
2013-03-06 10:32:00,57.0,34.0,30.10,NNW,328,11.0,20.0,42,99.99,,,-99.99,,2013-03-06 15:32:00,
2013-03-06 10:42:00,57.0,34.0,30.10,NNW,328,11.0,20.0,42,99.99,,,-99.99,,2013-03-06 15:42:00,
2013-03-06 10:52:00,57.0,36.0,30.10,NNW,332,11.0,20.0,45,99.99,,,-99.99,,2013-03-06 15:52:00,
2013-03-06 11:02:00,58.0,37.0,30.10,North,1,9.0,15.0,45,99.99,,,-99.99,,2013-03-06 16:02:00,
2013-03-06 11:12:00,58.0,37.0,30.10,North,1,9.0,15.0,45,99.99,,,-99.99,,2013-03-06 16:12:00,
2013-03-06 11:21:00,60.0,37.0,30.09,NNW,332,10.0,16.0,42,99.99,,,-99.99,,2013-03-06 16:21:00,
2013-03-06 11:32:00,60.0,36.0,30.09,NW,323,11.0,18.0,41,99.99,,,-99.99,,2013-03-06 16:32:00,
2013-03-06 11:42:00,60.0,36.0,30.09,NW,323,11.0,18.0,41,99.99,,,-99.99,,2013-03-06 16:42:00,
2013-03-06 11:52:00,60.0,36.0,30.08,NNW,343,12.0,22.0,40,99.99,,,-99.99,,2013-03-06 16:52:00,
2013-03-06 12:01:00,61.0,36.0,30.08,NNW,342,10.0,18.0,39,99.99,,,-99.99,,2013-03-06 17:01:00,
2013-03-06 12:11:00,61.0,36.0,30.08,NNW,342,10.0,18.0,39,99.99,,,-99.99,,2013-03-06 17:11:00,
2013-03-06 12:22:00,62.0,36.0,30.07,NW,325,12.0,21.0,38,99.99,,,-99.99,,2013-03-06 17:22:00,
2013-03-06 12:32:00,63.0,37.0,30.06,NW,307,10.0,20.0,38,99.99,,,-99.99,,2013-03-06 17:32:00,
2013-03-06 12:42:00,63.0,37.0,30.06,NW,307,10.0,20.0,38,99.99,,,-99.99,,2013-03-06 17:42:00,
2013-03-06 12:53:00,64.0,39.0,30.05,NW,315,11.0,16.0,40,99.99,,,-99.99,,2013-03-06 17:53:00,
2013-03-06 13:02:00,65.0,39.0,30.05,NW,322,11.0,22.0,38,99.99,,,-99.99,,2013-03-06 18:02:00,
2013-03-06 13:28:00,65.0,39.0,30.03,NW,307,12.0,21.0,38,99.99,,,-99.99,,2013-03-06 18:28:00,
2013-03-06 13:42:00,67.0,40.0,30.02,NW,323,10.0,21.0,37,99.99,,,-99.99,,2013-03-06 18:42:00,
2013-03-06 13:52:00,68.0,37.0,30.01,NNW,333,10.0,18.0,32,99.99,,,-99.99,,2013-03-06 18:52:00,
2013-03-06 14:02:00,69.0,29.0,30.01,NW,307,13.0,26.0,22,99.99,,,-99.99,,2013-03-06 19:02:00,
2013-03-06 14:11:00,69.0,29.0,30.01,NW,307,13.0,26.0,22,99.99,,,-99.99,,2013-03-06 19:11:00,
2013-03-06 14:22:00,69.0,31.0,30.01,NW,326,10.0,18.0,24,99.99,,,-99.99,,2013-03-06 19:22:00,
2013-03-06 14:32:00,69.0,24.0,30.00,NW,319,16.0,24.0,18,99.99,,,-99.99,,2013-03-06 19:32:00,
2013-03-06 14:43:00,69.0,24.0,30.00,NW,319,16.0,24.0,18,99.99,,,-99.99,,2013-03-06 19:43:00,
2013-03-06 14:53:00,69.0,27.0,30.00,NW,309,16.0,28.0,21,99.99,,,-99.99,,2013-03-06 19:53:00,
2013-03-06 15:02:00,69.0,22.0,29.99,NNW,336,16.0,35.0,17,99.99,,,-99.99,,2013-03-06 20:02:00,
2013-03-06 15:12:00,69.0,22.0,29.99,NNW,336,16.0,35.0,17,99.99,,,-99.99,,2013-03-06 20:12:00,
2013-03-06 15:22:00,69.0,25.0,29.99,NW,319,13.0,25.0,19,99.99,,,-99.99,,2013-03-06 20:22:00,
2013-03-06 15:32:00,68.0,23.0,29.99,NNW,333,13.0,25.0,18,99.99,,,-99.99,,2013-03-06 20:32:00,
2013-03-06 15:42:00,68.0,23.0,29.99,NNW,333,13.0,25.0,18,99.99,,,-99.99,,2013-03-06 20:42:00,
2013-03-06 15:53:00,68.0,25.0,29.99,North,352,13.0,22.0,20,99.99,,,-99.99,,2013-03-06 20:53:00,
2013-03-06 16:02:00,68.0,27.0,29.98,NW,321,11.0,21.0,21,99.99,,,-99.99,,2013-03-06 21:02:00,
2013-03-06 16:12:00,68.0,27.0,29.98,NW,321,11.0,21.0,21,99.99,,,-99.99,,2013-03-06 21:12:00,
2013-03-06 16:22:00,67.0,26.0,29.98,NW,311,12.0,23.0,21,99.99,,,-99.99,,2013-03-06 21:22:00,
2013-03-06 16:32:00,66.0,27.0,30.00,NW,314,14.0,26.0,23,99.99,,,-99.99,,2013-03-06 21:32:00,
2013-03-06 16:42:00,66.0,27.0,30.00,NW,314,14.0,26.0,23,99.99,,,-99.99,,2013-03-06 21:42:00,
2013-03-06 16:52:00,65.0,28.0,30.00,NNW,340,14.0,25.0,25,99.99,,,-99.99,,2013-03-06 21:52:00,
2013-03-06 17:02:00,64.0,30.0,30.00,NW,315,10.0,18.0,28,99.99,,,-99.99,,2013-03-06 22:02:00,
2013-03-06 17:11:00,64.0,30.0,30.00,NW,315,10.0,18.0,28,99.99,,,-99.99,,2013-03-06 22:11:00,
2013-03-06 17:22:00,63.0,27.0,30.00,NW,314,15.0,24.0,25,99.99,,,-99.99,,2013-03-06 22:22:00,
2013-03-06 17:32:00,63.0,33.0,30.00,NNW,336,10.0,20.0,32,99.99,,,-99.99,,2013-03-06 22:32:00,
2013-03-06 17:42:00,63.0,33.0,30.00,NNW,336,10.0,20.0,32,99.99,,,-99.99,,2013-03-06 22:42:00,
2013-03-06 17:52:00,62.0,32.0,30.00,NW,312,12.0,24.0,32,99.99,,,-99.99,,2013-03-06 22:52:00,
2013-03-06 18:01:00,61.0,30.0,30.01,WNW,295,12.0,20.0,31,99.99,,,-99.99,,2013-03-06 23:01:00,
2013-03-06 18:11:00,61.0,30.0,30.01,WNW,295,12.0,20.0,31,99.99,,,-99.99,,2013-03-06 23:11:00,
2013-03-06 18:22:00,59.0,29.0,30.02,NW,322,13.0,21.0,32,99.99,,,-99.99,,2013-03-06 23:22:00,
2013-03-06 18:32:00,59.0,33.0,30.02,WNW,301,9.0,15.0,37,99.99,,,-99.99,,2013-03-06 23:32:00,
2013-03-06 18:42:00,58.0,32.0,30.01,WNW,290,8.0,14.0,37,99.99,,,-99.99,,2013-03-06 23:42:00,
2013-03-06 18:52:00,58.0,32.0,30.01,WNW,290,8.0,14.0,37,99.99,,,-99.99,,2013-03-06 23:52:00,
2013-03-06 19:02:00,57.0,32.0,30.03,WNW,298,8.0,15.0,39,99.99,,,-99.99,,2013-03-07 00:02:00,
2013-03-06 19:11:00,57.0,32.0,30.03,WNW,298,8.0,15.0,39,99.99,,,-99.99,,2013-03-07 00:11:00,
2013-03-06 19:21:00,56.0,33.0,30.04,WNW,298,7.0,13.0,42,99.99,,,-99.99,,2013-03-07 00:21:00,
2013-03-06 19:32:00,56.0,36.0,30.05,NW,315,8.0,14.0,47,99.99,,,-99.99,,2013-03-07 00:32:00,
2013-03-06 19:42:00,56.0,36.0,30.05,NW,315,8.0,14.0,47,99.99,,,-99.99,,2013-03-07 00:42:00,
2013-03-06 19:52:00,55.0,36.0,30.06,NW,307,10.0,15.0,49,99.99,,,-99.99,,2013-03-07 00:52:00,
2013-03-06 20:01:00,54.0,36.0,30.06,NNW,329,10.0,17.0,50,99.99,,,-99.99,,2013-03-07 01:01:00,
2013-03-06 20:11:00,54.0,36.0,30.06,NNW,329,10.0,17.0,50,99.99,,,-99.99,,2013-03-07 01:11:00,
2013-03-06 20:21:00,54.0,36.0,30.07,NW,326,11.0,20.0,51,99.99,,,-99.99,,2013-03-07 01:21:00,
2013-03-06 20:32:00,54.0,37.0,30.09,NNW,339,10.0,23.0,53,99.99,,,-99.99,,2013-03-07 01:32:00,
2013-03-06 20:42:00,54.0,37.0,30.09,NNW,339,10.0,23.0,53,99.99,,,-99.99,,2013-03-07 01:42:00,
2013-03-06 20:52:00,53.0,37.0,30.09,NW,309,9.0,15.0,55,99.99,,,-99.99,,2013-03-07 01:52:00,
2013-03-06 21:01:00,53.0,38.0,30.09,NNW,329,7.0,13.0,56,99.99,,,-99.99,,2013-03-07 02:01:00,
2013-03-06 21:11:00,53.0,38.0,30.09,NNW,329,7.0,13.0,56,99.99,,,-99.99,,2013-03-07 02:11:00,
2013-03-06 21:21:00,52.0,38.0,30.09,NW,322,6.0,10.0,58,99.99,,,-99.99,,2013-03-07 02:21:00,
2013-03-06 21:32:00,52.0,39.0,30.10,NNW,339,6.0,9.0,61,99.99,,,-99.99,,2013-03-07 02:32:00,
2013-03-06 21:41:00,52.0,39.0,30.10,NNW,339,6.0,9.0,61,99.99,,,-99.99,,2013-03-07 02:41:00,
2013-03-06 21:52:00,52.0,39.0,30.10,NNW,339,6.0,9.0,61,99.99,,,-99.99,,2013-03-07 02:52:00,
2013-03-06 22:02:00,51.0,39.0,30.11,NW,322,6.0,11.0,64,99.99,,,-99.99,,2013-03-07 03:02:00,
2013-03-06 22:11:00,51.0,40.0,30.11,NW,321,5.0,10.0,66,99.99,,,-99.99,,2013-03-07 03:11:00,
2013-03-06 22:21:00,51.0,40.0,30.11,NW,321,5.0,10.0,66,99.99,,,-99.99,,2013-03-07 03:21:00,
2013-03-06 22:32:00,51.0,39.0,30.12,NNW,332,6.0,11.0,64,99.99,,,-99.99,,2013-03-07 03:32:00,
2013-03-06 22:42:00,51.0,39.0,30.12,NNW,332,6.0,11.0,64,99.99,,,-99.99,,2013-03-07 03:42:00,
2013-03-06 22:52:00,51.0,39.0,30.13,NNW,330,7.0,12.0,63,99.99,,,-99.99,,2013-03-07 03:52:00,
2013-03-06 23:01:00,51.0,39.0,30.13,NNW,335,6.0,11.0,64,99.99,,,-99.99,,2013-03-07 04:01:00,
2013-03-06 23:11:00,51.0,39.0,30.13,NNW,335,6.0,11.0,64,99.99,,,-99.99,,2013-03-07 04:11:00,
2013-03-06 23:22:00,50.0,39.0,30.13,NNW,330,6.0,10.0,65,99.99,,,-99.99,,2013-03-07 04:22:00,
2013-03-06 23:32:00,50.0,39.0,30.13,NNW,339,6.0,9.0,66,99.99,,,-99.99,,2013-03-07 04:32:00,
2013-03-06 23:42:00,50.0,39.0,30.13,NNW,339,6.0,9.0,66,99.99,,,-99.99,,2013-03-07 04:42:00,
2013-03-06 23:52:00,50.0,39.0,30.14,NNW,340,6.0,10.0,66,99.99,,,-99.99,,2013-03-07 04:52:00,